GFSGBSN_2pvu_pres_270.txt.gz
Presure
240 207 190 192 198 223 163 151 152 163 130 127 137 122 136 110 110 123 129 136 133 138 153 117 114 113 133 104 109 107 100 124 115 126 147 112 115 150 123 131 126 122 117 110 113 108 103
218 193 200 193 191 198 177 168 163 171 160 151 130 145 134 134 158 114 125 137 117 131 119 127 145 123 118 119 130 151 115 117 138 117 122 103 147 144 145 130 117 106 141 124 136 121 118
253 232 240 195 195 196 209 231 172 183 175 121 152 137 133 150 122 143 136 121 128 136 137 109 149 114 161 122 117 115 127 117 116 113 109 144 126 138 153 118 133 147 122 109 147 137 114
238 231 237 241 192 190 193 191 211 181 166 190 163 131 130 151 149 139 123 161 121 126 131 123 126 117 122 120 126 154 121 111 126 145 116 110 122 148 146 130 137 112 148 121 120 123 118
250 244 226 237 237 193 188 196 200 200 198 172 180 164 155 123 127 143 144 145 121 149 113 114 149 120 144 127 123 111 147 116 120 126 126 110 119 115 122 141 124 121 130 115 109 123 108
261 254 272 234 231 220 194 191 191 190 221 183 165 175 152 171 115 139 147 132 143 161 116 119 107 110 137 138 117 106 103 121 147 116 160 144 149 125 146 111 115 106 143 127 96 98 115
331 256 258 262 239 234 223 189 189 192 196 173 174 160 182 182 143 124 150 154 155 108 158 116 149 126 106 128 144 106 110 109 121 110 113 142 108 112 151 112 131 104 107 153 131 109 116
315 312 247 263 243 232 237 222 192 192 193 191 198 184 175 162 170 165 121 145 141 151 130 143 123 135 127 152 119 151 118 122 112 102 131 116 133 128 115 101 132 131 124 115 128 132 149
347 305 242 250 195 228 227 223 202 192 184 191 185 200 170 192 178 172 174 173 135 155 140 135 126 132 137 141 128 111 146 128 128 125 102 153 137 98 95 108 117 122 133 127 153 144 136
328 331 304 242 230 259 232 231 220 192 191 183 186 201 199 182 173 187 164 187 174 132 165 167 133 150 124 151 157 122 147 113 120 149 129 133 149 122 126 140 136 148 148 157 136 156 129
285 312 323 338 243 259 238 229 229 212 192 188 185 189 191 201 191 188 200 176 171 179 192 119 169 169 153 146 151 162 150 148 125 134 116 145 132 136 141 122 131 121 146 93 94 156 152
279 288 304 309 333 245 256 222 219 219 196 185 183 166 183 183 181 190 195 204 201 170 173 175 179 125 154 134 128 133 143 96 154 149 120 110 112 131 147 117 137 120 111 140 137 171 162
340 281 295 312 289 308 255 251 221 221 218 184 184 176 171 170 181 183 188 182 191 201 196 202 206 200 189 162 141 167 151 171 139 146 199 144 131 133 158 103 127 149 143 176 195 196 216
350 355 371 279 335 335 260 246 228 220 225 205 180 188 174 181 183 186 181 185 190 183 197 201 201 195 189 196 203 207 160 145 143 139 131 141 152 154 190 176 152 198 98 205 183 200 196
325 331 317 328 305 351 300 252 245 191 210 215 196 200 178 175 179 184 180 179 189 189 182 185 187 189 198 194 194 198 117 209 207 210 232 218 211 188 197 205 192 181 198 197 126 193 179
295 323 312 337 600 297 356 253 249 230 214 209 212 194 194 189 177 180 180 167 167 181 178 173 173 185 190 192 186 203 197 215 204 192 193 190 198 189 193 191 195 146 182 194 191 200 184
307 321 330 421 616 392 359 345 249 241 219 204 208 206 198 195 184 182 181 177 173 176 180 186 179 174 181 181 187 177 187 192 170 188 177 190 162 186 190 202 175 175 170 176 214 175 214
308 321 344 522 595 489 331 348 252 241 217 205 204 214 201 194 201 190 179 194 186 170 176 175 180 182 186 161 168 176 189 187 183 178 189 182 182 179 166 165 176 163 219 215 237 258 196
306 323 363 530 592 373 354 328 250 238 223 212 202 201 204 203 192 200 181 172 176 178 176 174 174 175 178 177 178 195 176 183 187 178 182 175 165 175 177 174 195 181 185 172 204 217 187
296 311 362 573 578 309 319 300 250 235 224 207 202 199 210 205 192 193 185 197 187 187 187 185 175 177 173 177 186 185 187 192 178 184 172 170 169 167 197 189 185 231 172 215 213 191 181
309 312 362 580 284 326 308 277 243 232 221 216 144 201 199 214 205 195 189 184 190 177 181 190 193 186 157 186 189 182 174 175 185 177 181 193 184 198 184 204 215 275 215 225 235 230 219
323 319 366 582 291 318 298 256 242 227 218 221 209 202 199 202 199 188 185 190 191 185 185 177 198 199 188 201 207 191 189 193 180 183 199 201 176 200 178 234 182 200 245 218 212 216 183
314 325 374 593 282 348 295 253 237 221 217 222 181 200 192 193 209 204 197 196 195 185 188 181 183 180 180 177 181 193 199 196 201 207 188 198 199 198 185 213 200 218 204 224 173 216 216
305 312 372 594 338 303 268 244 232 219 217 223 212 203 197 197 190 215 194 192 198 192 185 188 185 189 191 190 192 193 199 196 207 200 182 212 191 203 172 200 188 199 226 195 210 213 217
306 314 374 598 338 301 254 242 228 222 212 218 213 202 157 158 195 174 205 187 190 200 190 188 190 183 190 196 196 197 200 205 212 210 170 164 189 229 195 210 237 201 206 192 180 211 208
308 321 377 600 343 283 250 235 227 217 212 216 216 206 199 185 192 178 195 192 190 193 179 202 195 204 194 198 201 206 171 211 214 183 206 189 167 205 216 242 222 197 214 210 207 211 199
310 333 383 421 303 270 243 233 226 221 213 211 216 213 202 196 198 197 196 204 201 201 202 195 198 198 197 202 199 181 206 203 211 208 183 190 225 226 258 195 212 217 208 201 200 204 204
326 349 393 373 285 262 239 228 220 217 208 208 208 208 207 192 192 179 193 194 194 200 196 196 187 205 191 194 188 186 192 207 187 195 210 220 227 226 237 220 217 212 204 203 201 207 199
323 363 417 318 277 253 230 225 221 216 206 206 212 210 205 202 197 201 199 197 208 207 198 205 188 184 195 181 197 194 211 193 186 195 197 197 272 246 229 218 208 202 205 201 195 197 199

GFSGBSN_2pvu_pres_276.txt.gz
Presure
222 231 248 225 221 260 187 190 192 186 175 182 185 157 136 127 150 133 128 100 122 111 124 160 111 129 129 116 109 113 115 117 115 112 103 102 115 117 95 117 119 124 112 115 122 121 127
205 223 241 243 216 232 253 211 192 192 185 179 193 169 178 147 147 123 126 138 130 114 112 116 140 154 127 123 119 144 116 117 106 119 119 120 116 116 152 128 108 103 128 115 117 140 110
227 236 237 261 236 222 253 246 204 188 194 186 187 195 194 177 163 150 149 124 127 146 120 143 133 135 134 108 135 116 116 108 123 114 118 115 113 114 120 115 120 122 114 123 136 107 126
221 225 222 245 283 230 248 260 248 220 192 187 186 186 200 195 184 180 126 135 120 162 148 102 121 111 117 102 146 123 123 123 127 109 160 116 133 105 108 111 140 116 110 126 131 131 124
229 227 239 243 277 237 244 252 259 250 241 193 185 177 188 191 191 185 158 169 150 148 132 128 109 111 144 132 123 123 134 142 122 125 136 139 131 126 138 134 112 124 107 113 142 113 119
298 275 280 276 273 273 221 251 266 224 245 212 198 189 185 196 188 191 178 164 131 158 125 134 143 110 132 120 108 120 118 140 121 133 117 133 136 121 150 116 130 150 139 106 115 132 118
328 312 293 280 277 258 268 251 243 254 243 230 199 203 191 191 189 192 183 183 180 186 140 150 159 136 147 123 110 160 112 108 130 114 105 115 147 124 114 109 95 128 128 119 125 129 120
329 324 316 297 278 252 264 262 247 260 247 241 228 195 202 187 185 203 208 180 189 174 140 171 173 131 153 134 122 143 129 118 125 128 116 139 146 106 116 128 93 118 128 113 118 109 94
341 331 333 330 245 253 255 259 271 250 254 242 237 205 196 192 186 191 190 205 204 199 180 186 166 149 137 145 133 130 122 130 127 156 149 126 123 127 144 132 123 150 141 140 128 137 134
327 311 307 316 256 259 273 269 252 278 248 247 240 237 208 188 196 184 188 176 197 180 191 190 178 133 166 120 134 161 133 146 145 102 145 158 128 93 123 123 121 117 138 137 135 117 84
325 320 323 322 244 322 322 283 273 253 251 261 248 235 213 196 181 187 182 190 192 207 194 190 188 188 189 173 118 132 136 142 143 126 132 138 111 141 138 125 136 142 150 112 118 91 130
307 306 304 305 304 303 299 298 288 284 254 241 255 245 240 196 192 182 186 193 183 191 209 201 199 187 187 186 184 132 137 120 143 132 159 148 142 125 131 140 140 106 129 113 101 137 123
314 298 296 308 309 327 335 342 325 321 272 238 252 237 238 224 189 189 190 187 194 192 183 187 223 207 187 190 184 106 126 166 172 167 148 166 144 126 156 145 123 133 142 144 166 140 210
426 309 327 310 304 300 317 404 421 310 311 290 253 240 234 226 200 188 187 186 191 186 184 192 197 212 228 194 192 186 186 182 173 169 184 169 167 137 186 163 163 186 180 181 199 194 187
370 343 305 291 283 310 344 372 384 335 302 294 265 236 239 244 224 202 187 184 179 182 181 187 193 195 212 215 197 193 186 178 188 189 191 192 183 148 171 191 185 181 223 208 123 194 189
298 284 270 273 279 283 311 347 353 333 296 289 281 251 243 238 204 229 191 184 172 177 173 173 186 190 187 195 199 221 225 213 201 197 195 186 177 195 208 195 222 205 198 194 188 188 182
269 265 272 274 278 281 283 308 335 301 289 285 281 249 249 227 227 238 201 185 173 169 177 177 181 183 186 191 191 196 198 203 198 201 200 200 218 209 202 199 184 184 191 175 189 186 194
262 267 261 262 270 269 271 280 307 291 280 278 282 275 237 218 233 229 220 187 179 172 170 176 176 176 181 185 190 192 190 184 194 203 182 199 197 195 206 126 188 181 177 188 189 182 193
256 252 243 241 245 255 264 271 290 302 280 277 282 273 256 221 240 227 231 211 180 174 170 177 173 175 179 180 183 186 189 186 193 198 197 191 178 210 192 184 184 187 190 190 184 202 186
263 249 258 262 241 244 276 285 286 296 286 283 282 271 262 225 235 233 241 221 192 175 168 165 168 170 179 177 176 178 178 179 183 183 194 200 129 184 182 151 174 187 183 180 184 217 229
260 238 246 249 261 261 286 300 296 283 295 277 279 278 264 257 238 231 230 228 215 183 170 168 166 166 168 170 177 176 176 176 180 186 77 177 184 187 183 177 182 187 195 186 173 236 222
249 248 252 237 256 299 300 307 317 300 284 304 278 277 265 231 231 232 235 226 211 216 195 172 167 168 168 170 169 172 174 185 176 181 179 178 185 193 185 181 181 205 189 175 231 242 204
243 254 246 253 284 302 301 305 324 381 304 301 286 278 266 245 219 225 231 229 218 208 210 186 170 169 171 169 168 170 178 177 180 170 186 177 178 178 181 181 201 201 196 212 233 218 261
252 245 251 254 306 296 311 308 302 324 370 282 299 266 270 249 234 223 231 224 223 196 198 198 177 170 173 171 175 180 179 177 172 181 166 181 170 184 178 164 202 193 179 202 178 182 239
247 243 251 257 300 291 300 309 291 305 319 340 299 267 262 247 226 220 218 218 225 213 185 200 192 184 178 175 176 180 182 170 172 170 179 179 185 186 200 203 207 160 225 232 202 199 228
254 256 257 272 286 305 295 321 312 304 306 329 285 275 262 249 245 210 215 218 222 211 190 190 204 186 181 181 170 169 172 174 176 181 177 188 187 204 199 204 185 209 230 213 204 237 230
264 264 265 268 294 297 294 312 309 321 338 330 282 279 259 253 234 222 208 219 230 224 202 190 194 196 185 179 179 182 181 178 178 184 191 197 207 196 176 184 192 222 201 240 250 227 220
289 293 293 292 296 305 289 302 321 347 428 377 284 282 253 244 230 206 202 212 222 206 204 195 194 203 197 188 184 185 188 191 195 198 201 202 194 197 188 201 206 231 193 263 238 226 209
304 297 293 289 299 304 288 316 358 507 526 370 299 272 241 234 227 208 205 205 209 220 209 191 190 182 187 189 190 194 197 199 200 202 193 203 190 200 144 195 234 209 263 247 229 216 202

GFSGBSN_2pvu_pres_279.txt.gz
Presure
225 192 215 199 187 205 187 246 213 192 194 166 190 196 200 179 130 158 128 150 143 125 101 125 135 150 133 121 109 116 117 141 126 106 122 117 124 112 110 103 103 111 113 120 128 117 109
190 203 131 186 172 228 227 228 240 194 195 193 195 185 198 194 187 174 155 148 135 144 139 131 120 133 128 144 135 114 121 113 111 131 113 118 110 118 118 154 140 123 137 121 129 108 132
227 236 238 244 225 170 232 224 164 241 182 233 196 188 189 205 193 184 169 124 116 136 134 139 105 113 119 138 123 140 120 113 110 112 111 116 113 114 112 128 112 156 124 104 128 128 122
247 239 156 244 248 238 244 237 210 207 233 198 228 192 188 182 207 193 183 142 169 121 131 140 119 140 140 106 132 155 105 159 120 125 151 106 112 114 118 109 104 107 118 119 136 127 125
243 248 247 248 249 254 172 201 226 229 231 235 233 205 201 183 189 205 187 189 176 166 136 121 134 125 136 121 149 125 131 145 123 140 118 125 137 133 113 146 123 124 120 116 136 124 121
263 279 268 271 238 238 261 239 221 226 239 235 229 250 190 189 158 191 200 181 185 189 119 127 123 143 124 138 135 143 141 121 117 142 133 150 138 115 114 134 139 116 98 145 128 114 102
412 401 403 395 341 292 246 235 238 231 224 249 242 224 256 192 189 185 183 198 180 187 192 170 125 167 133 128 151 134 116 105 137 138 143 132 111 149 115 157 152 113 125 120 122 106 131
372 361 354 377 388 368 321 289 254 230 226 229 273 234 247 240 195 191 185 186 186 183 189 185 169 140 139 124 136 125 137 155 122 119 132 132 138 116 103 84 118 147 113 115 138 123 124
337 334 337 369 362 368 363 297 285 269 221 231 256 255 238 257 227 201 193 189 191 185 190 208 204 195 188 155 133 135 131 144 135 123 110 129 129 111 153 137 134 116 136 144 113 137 129
336 378 350 349 352 349 356 356 307 276 269 243 259 269 229 242 259 239 192 188 191 187 189 190 193 211 197 179 116 123 134 165 136 134 139 130 125 122 123 137 156 132 142 147 112 147 126
323 374 352 360 369 335 325 312 332 286 269 266 259 264 221 240 253 248 229 193 187 192 193 188 183 181 200 197 172 181 129 149 136 114 147 117 149 136 148 130 146 117 145 125 129 148 141
365 368 359 353 357 350 335 319 330 322 278 266 258 251 278 216 239 251 219 211 190 191 192 189 186 188 202 202 206 189 180 184 138 110 163 133 172 132 139 134 136 132 141 138 148 159 146
317 332 326 328 322 312 315 321 320 311 284 269 260 244 251 223 238 240 255 215 203 194 191 192 189 196 201 190 185 202 200 187 179 176 170 178 128 125 127 145 132 117 141 136 162 158 177
327 320 307 306 311 326 327 301 306 310 315 276 259 244 243 239 233 267 267 237 238 192 186 181 181 195 193 187 177 203 169 224 198 198 188 183 172 179 182 141 140 159 176 176 170 109 178
320 302 304 306 306 301 308 318 316 307 301 256 241 243 241 236 244 229 252 280 232 193 182 179 181 181 186 203 206 199 198 199 226 222 195 192 192 190 137 185 174 185 171 171 182 106 200
300 305 301 305 304 304 301 300 306 302 293 282 249 240 234 231 241 229 238 237 250 218 184 178 178 181 184 187 195 204 202 196 187 201 189 207 217 202 193 189 179 184 188 221 188 199 191
289 292 357 449 379 304 297 293 305 299 303 249 241 297 271 227 261 243 236 246 236 224 201 177 177 178 177 192 187 189 192 199 116 195 193 198 218 229 240 223 225 207 190 196 191 202 191
287 291 339 361 350 326 287 295 319 323 325 298 290 294 265 232 253 232 250 238 246 220 220 179 174 174 177 181 186 187 188 193 191 191 200 206 190 200 193 190 197 205 200 140 190 201 181
286 281 278 316 314 303 295 296 298 317 401 326 299 287 242 248 235 238 235 230 256 239 212 188 179 175 176 180 195 202 188 191 194 186 189 197 191 206 196 185 154 198 191 188 185 187 181
287 275 271 258 279 276 273 280 306 327 369 375 314 291 278 251 242 239 249 240 277 236 223 197 181 177 176 175 176 181 175 202 193 201 191 191 194 183 201 196 191 192 181 177 185 191 176
290 277 265 262 271 275 276 280 276 310 349 364 315 289 284 272 258 255 243 224 234 243 224 217 183 177 174 173 175 177 180 187 188 205 189 202 192 185 181 182 184 176 174 186 179 176 191
403 274 272 257 256 262 270 278 280 279 321 349 312 277 278 276 268 261 262 236 258 229 221 207 197 177 174 175 174 174 170 178 193 170 195 180 177 179 181 181 184 162 193 184 189 185 202
376 291 275 257 256 256 249 251 257 269 297 326 292 274 277 257 247 251 252 248 245 231 232 195 195 182 178 175 175 177 175 175 190 194 179 177 170 184 175 182 182 165 189 177 180 197 208
342 287 270 256 254 253 248 267 248 247 273 301 268 268 271 250 247 243 256 261 259 237 229 206 207 188 183 181 174 185 184 181 176 174 170 176 175 177 187 177 175 196 183 185 150 203 170
319 283 268 254 256 250 242 246 249 260 267 288 280 268 269 257 247 250 240 230 241 252 239 206 194 190 178 173 168 171 174 176 176 172 175 171 176 197 172 187 177 183 186 152 205 196 239
279 269 266 254 251 247 251 256 239 310 317 296 293 271 269 257 252 245 240 231 234 220 222 213 209 204 185 143 174 171 177 163 168 176 180 174 176 178 177 191 175 169 186 205 197 152 263
268 264 261 260 248 245 246 236 263 313 309 308 292 287 262 265 260 246 249 236 245 207 211 215 218 197 144 190 188 175 183 181 174 175 177 176 176 174 181 190 187 175 210 174 174 242 265
271 265 263 250 248 248 238 257 272 312 312 317 302 283 273 261 263 256 245 230 238 219 207 210 215 207 211 198 193 191 191 189 186 188 187 193 184 185 193 189 190 205 155 204 177 253 238
257 257 263 249 231 231 235 245 275 311 305 301 331 299 288 263 259 266 250 237 230 207 202 213 217 197 188 192 191 190 188 189 189 189 178 186 191 192 178 207 173 214 204 213 236 255 214

GFSGBSN_2pvu_pres_285.txt.gz
Presure
154 98 163 170 173 173 175 139 175 164 181 175 180 162 192 205 231 199 187 174 204 187 131 125 121 152 147 147 119 139 126 119 118 136 118 117 137 113 111 114 116 125 135 115 110 111 118
163 166 163 159 169 160 131 171 167 174 172 150 178 153 195 175 205 241 207 195 198 209 195 183 137 124 122 131 146 110 138 135 130 122 116 126 135 117 144 145 124 113 120 122 114 117 116
172 174 187 184 175 162 97 176 105 152 180 161 125 166 159 161 162 204 236 216 194 187 194 199 191 139 126 157 140 165 122 121 147 129 137 132 112 126 133 131 118 117 139 118 117 155 137
175 178 183 172 165 168 173 171 180 120 169 185 122 163 204 178 194 178 231 256 212 199 191 200 203 197 135 131 117 114 156 123 139 140 155 120 124 137 147 129 124 127 133 132 135 134 132
178 177 170 175 182 176 178 186 168 197 205 158 163 231 237 155 162 212 150 152 251 205 195 197 192 202 197 142 132 135 141 127 138 133 124 146 143 134 137 112 131 122 117 120 128 105 121
173 170 183 181 169 180 187 193 204 196 215 224 139 216 126 257 188 249 216 170 239 249 208 191 197 188 202 183 185 129 130 142 129 128 146 143 125 152 145 102 144 142 140 126 120 126 132
175 173 183 176 174 202 194 204 191 227 241 260 274 271 271 263 275 255 149 227 213 198 245 204 194 184 192 205 191 136 139 122 122 122 110 142 114 140 153 124 155 132 133 155 140 138 140
175 187 182 186 188 200 198 205 236 280 284 295 284 286 279 274 269 262 178 246 165 183 214 226 203 196 187 199 195 208 188 202 127 149 118 130 138 133 129 131 150 126 143 148 147 147 116
179 188 184 187 203 200 216 242 294 286 289 304 297 291 277 281 271 264 251 195 237 227 234 231 190 208 202 182 189 191 207 201 183 133 134 129 133 138 133 145 140 131 124 126 127 137 137
185 177 199 201 209 227 253 283 309 360 389 387 387 390 385 315 179 267 257 257 243 196 229 170 236 205 208 202 195 189 201 221 208 200 169 147 131 117 127 121 128 127 134 150 134 129 138
174 202 195 212 233 251 289 338 379 381 374 366 359 364 364 373 368 280 271 262 245 240 237 236 231 236 220 207 201 200 183 209 210 207 189 185 159 124 148 112 128 130 141 141 131 124 131
202 204 213 230 283 281 336 350 361 359 356 346 338 339 345 355 359 341 281 264 253 247 237 227 229 225 226 203 190 197 197 204 207 200 205 205 197 198 160 155 143 138 137 138 155 130 135
198 206 238 283 274 362 347 345 350 348 364 342 338 336 330 326 336 343 289 257 258 250 229 228 220 218 229 219 208 200 195 194 199 204 202 191 204 205 187 190 183 176 154 143 135 183 135
228 247 274 280 352 350 357 349 359 364 341 337 348 340 363 320 337 340 319 277 267 246 230 222 219 215 221 213 225 213 196 193 195 199 198 193 181 193 208 190 181 180 179 178 177 197 196
262 275 284 332 346 366 349 402 365 342 356 375 371 392 337 308 318 325 315 309 258 244 238 230 219 212 215 234 228 211 201 195 195 196 199 211 190 173 183 187 190 187 180 183 184 190 197
277 270 282 355 363 347 402 369 333 354 355 354 362 344 323 341 332 315 306 323 281 250 241 234 225 216 206 228 223 223 216 202 201 199 198 199 205 206 193 186 177 180 181 177 181 174 189
269 290 355 351 328 343 376 337 347 349 330 335 359 360 327 340 344 305 280 278 266 246 225 231 219 212 207 209 235 219 216 222 212 205 200 199 197 197 198 210 216 187 194 172 171 187 175
280 316 358 326 312 391 354 327 346 339 323 319 357 325 321 361 314 298 280 289 256 238 222 226 219 209 214 209 240 231 235 217 209 210 206 202 190 200 203 191 194 184 185 201 189 187 183
283 359 331 305 308 381 331 319 335 313 307 313 343 311 326 319 298 284 273 276 270 291 213 214 207 211 211 214 239 230 231 222 218 213 206 205 203 179 214 174 225 240 231 240 198 189 195
364 347 302 297 357 354 334 339 320 302 300 301 294 309 307 313 295 283 272 268 250 250 250 241 210 216 209 215 224 221 220 223 220 215 212 201 204 202 209 202 197 214 177 194 202 220 187
331 303 288 360 375 335 329 333 309 296 292 295 304 305 295 304 286 280 281 265 255 244 245 252 235 235 208 201 242 213 218 223 218 212 206 204 206 197 183 206 184 207 121 210 181 187 211
304 282 282 397 345 332 316 316 305 295 297 291 304 300 296 289 281 269 261 258 245 244 234 239 254 231 241 242 242 220 223 215 212 217 206 205 197 200 194 215 200 180 217 182 179 211 193
282 280 417 363 326 296 323 308 299 383 314 286 298 285 298 266 277 267 266 277 248 244 239 256 252 242 250 235 227 201 192 220 213 205 201 211 189 185 216 199 194 160 191 215 191 190 181
271 371 384 328 315 302 306 299 388 395 380 282 288 284 290 281 264 269 259 256 246 249 246 231 222 238 249 242 226 210 205 202 208 205 207 199 211 193 187 186 189 180 199 197 188 196 198
425 396 346 314 322 314 299 284 354 352 280 281 286 294 268 270 270 271 248 248 236 237 230 226 233 225 248 257 257 217 208 203 197 197 196 197 188 188 186 194 193 203 197 192 196 183 200
405 355 324 318 311 300 291 272 331 278 279 279 282 285 279 289 253 253 253 243 236 233 234 254 238 220 242 222 236 223 211 207 202 199 204 193 194 185 187 191 197 196 194 184 194 192 170
354 324 305 314 305 300 284 266 298 280 267 270 274 276 291 278 257 248 251 246 264 254 224 222 219 223 232 231 211 197 198 201 200 199 194 194 196 192 189 181 192 183 181 185 108 180 187
324 312 315 304 304 301 279 263 273 271 275 282 288 271 276 284 270 249 244 251 244 237 231 217 208 215 240 239 209 212 205 195 200 195 193 199 199 190 180 187 184 193 188 172 170 189 193
310 313 306 297 293 281 278 260 263 270 265 271 272 310 281 281 278 269 246 232 230 229 236 214 217 163 230 219 205 205 201 195 209 198 195 200 193 190 188 187 180 186 180 161 185 188 202

GFSGBSN_2pvu_pres_288.txt.gz
Presure
200 108 173 165 168 166 155 158 166 152 176 154 140 157 133 180 189 180 194 209 195 180 195 198 183 150 139 138 149 124 117 115 123 120 141 147 120 127 121 116 118 116 123 118 116 115 114
203 199 164 100 144 170 174 165 89 158 161 177 169 147 174 144 178 155 185 179 197 206 189 195 198 187 178 142 154 131 136 146 131 131 124 119 143 131 111 113 129 144 134 132 116 132 135
198 205 204 198 162 90 160 113 155 159 162 111 121 125 172 163 165 180 152 192 177 184 205 233 207 194 191 190 159 135 134 153 127 147 122 138 120 113 127 134 134 129 100 127 119 135 145
202 204 199 199 200 196 188 156 167 168 165 123 174 164 162 123 177 181 178 157 162 166 172 182 223 210 169 218 199 187 155 136 134 119 134 150 136 141 115 117 144 130 137 144 139 132 127
206 206 184 198 200 200 188 170 168 171 185 181 174 172 102 173 173 173 168 168 146 201 173 193 183 226 215 206 196 198 188 189 151 136 126 141 143 114 137 130 125 150 147 136 122 126 121
209 209 207 202 149 168 178 171 165 168 180 176 102 168 145 176 162 177 110 187 205 201 184 198 179 162 193 217 205 197 202 193 176 166 139 138 120 117 157 145 110 103 110 153 123 103 151
207 211 203 199 202 170 154 170 184 178 179 162 165 177 182 175 179 191 197 130 211 212 202 247 161 255 177 170 216 207 201 212 200 184 179 134 133 127 130 143 162 139 146 113 109 112 140
204 210 187 194 200 174 176 183 164 168 180 191 181 194 186 200 196 159 207 168 236 235 171 233 188 253 144 137 218 215 206 191 203 195 188 186 162 141 146 131 121 138 119 138 127 147 145
210 208 192 187 184 173 182 173 184 178 188 192 199 210 215 220 304 165 242 290 113 276 142 200 261 259 243 232 211 243 213 205 192 199 211 193 188 180 139 151 125 136 129 126 126 118 132
210 201 179 184 192 196 186 183 176 191 193 200 213 218 273 301 299 316 319 286 254 281 269 268 169 253 257 230 234 232 236 208 205 198 188 213 198 182 181 165 168 160 153 145 151 141 137
204 180 184 192 174 178 190 176 184 202 206 217 242 306 328 370 367 382 376 346 284 278 274 125 268 260 256 231 223 229 237 237 206 203 177 188 187 197 186 183 175 165 152 154 133 131 133
182 195 178 173 176 176 189 190 202 212 223 300 309 380 362 353 362 369 365 363 356 315 285 274 277 268 244 241 203 224 221 234 235 204 202 198 178 198 201 198 186 186 170 167 164 158 156
194 170 171 162 176 184 188 201 226 228 286 339 403 382 360 355 352 347 348 342 341 348 302 283 273 269 138 238 223 217 221 222 226 205 212 205 203 182 182 200 189 215 191 182 188 172 165
176 176 169 178 197 190 203 217 233 279 392 384 377 433 356 347 360 347 331 344 328 357 364 296 268 261 243 235 222 221 221 226 227 226 232 212 205 208 208 171 198 195 195 196 203 201 198
158 175 177 185 187 216 217 250 286 349 372 350 427 391 361 356 338 325 320 297 322 340 327 307 269 249 249 237 226 224 218 218 221 225 224 223 213 204 206 208 191 197 197 202 182 184 183
192 189 193 194 218 221 253 278 269 378 341 333 394 357 347 331 329 324 326 315 333 319 341 336 286 253 247 231 222 216 213 215 218 222 221 220 215 207 207 209 209 195 184 186 178 173 174
200 203 210 227 228 246 268 264 387 343 320 326 360 331 327 377 374 348 316 323 321 305 292 330 282 253 246 225 222 218 218 216 218 220 220 221 221 215 212 210 208 203 209 215 220 188 194
213 217 230 240 244 240 289 299 364 317 314 373 339 365 351 362 364 377 337 302 287 300 283 300 308 248 239 225 219 218 217 220 218 211 229 222 216 214 215 208 207 210 211 208 246 182 263
235 242 239 250 267 288 290 355 324 300 309 354 332 342 325 343 367 333 315 307 309 318 274 276 285 240 233 226 223 219 217 219 215 206 221 222 222 220 220 219 214 210 209 204 211 195 199
235 260 240 271 285 278 290 344 301 296 379 331 338 331 320 334 358 309 301 291 295 281 275 291 263 238 234 225 222 220 222 219 211 200 213 222 217 213 209 208 206 191 215 211 191 201 211
226 234 268 286 277 287 345 315 292 332 357 345 322 318 311 323 348 319 322 307 300 287 269 268 269 246 230 224 223 221 220 217 192 198 224 224 217 235 225 214 213 196 203 212 193 205 176
245 255 277 277 281 292 324 290 287 379 347 339 305 302 303 345 322 318 331 306 281 266 260 257 261 232 228 220 224 225 220 212 202 206 210 224 221 203 208 224 209 205 211 198 200 185 197
260 271 287 276 281 333 297 284 399 353 314 316 299 299 298 294 312 348 318 290 265 262 250 250 256 236 223 215 223 223 217 207 199 214 214 213 209 170 222 207 203 205 162 195 193 203 204
271 286 275 282 333 301 277 417 373 336 331 299 299 298 297 353 314 314 302 285 276 274 259 261 259 236 224 211 213 213 202 190 199 206 226 166 207 213 210 203 200 213 202 191 181 197 217
282 283 296 333 307 280 415 382 340 310 321 297 292 287 297 312 315 290 286 272 268 253 243 241 250 251 243 220 217 217 203 214 197 211 213 210 218 219 209 215 203 185 189 192 200 203 176
291 286 343 307 279 424 392 344 314 322 307 298 291 290 294 303 300 289 273 244 243 243 244 240 240 242 230 240 240 222 240 224 223 214 205 220 207 200 211 202 197 189 189 176 200 205 186
294 340 294 289 431 399 355 319 321 302 298 402 409 281 293 304 291 290 259 261 251 240 239 249 238 241 248 250 250 221 211 207 213 209 221 209 200 213 199 189 193 207 177 193 186 171 191
322 287 422 424 395 362 325 326 305 294 350 369 370 280 292 300 291 281 258 256 256 245 240 232 240 248 256 258 250 228 212 213 208 206 203 200 201 193 194 194 162 197 181 181 185 175 187
304 437 413 384 357 324 316 294 294 307 335 342 286 279 293 295 277 257 265 261 256 244 233 237 240 244 224 221 237 221 214 208 205 207 202 212 211 203 195 193 200 201 203 178 197 177 193